Precipitable_Water
0.19 0.18 0.23 0.29 0.30 0.32 0.33 0.28 0.29 0.31 0.37 0.36 0.37 0.38 0.40 0.45 0.45 0.44 0.46 0.47 0.48 0.49 0.56 0.58 0.58 0.57 0.54 0.59 0.67 0.73 0.81 0.88 1.11 1.18 1.10 1.13 1.06 1.03 1.00 0.94 1.07 1.24 1.38 1.37
0.18 0.15 0.21 0.26 0.28 0.32 0.36 0.30 0.27 0.34 0.39 0.35 0.39 0.37 0.43 0.45 0.45 0.46 0.49 0.50 0.51 0.53 0.54 0.53 0.51 0.48 0.45 0.43 0.42 0.45 0.53 0.59 0.66 0.74 0.78 0.89 0.85 0.78 0.68 0.63 0.62 0.70 0.84 0.87
0.16 0.17 0.20 0.22 0.24 0.31 0.35 0.29 0.31 0.33 0.39 0.41 0.36 0.34 0.41 0.52 0.58 0.59 0.59 0.57 0.56 0.52 0.48 0.45 0.41 0.40 0.38 0.37 0.36 0.35 0.34 0.33 0.35 0.37 0.39 0.40 0.40 0.41 0.40 0.43 0.44 0.46 0.48 0.50
0.17 0.18 0.21 0.19 0.22 0.30 0.31 0.35 0.33 0.34 0.32 0.28 0.40 0.28 0.40 0.47 0.51 0.55 0.55 0.54 0.49 0.48 0.45 0.39 0.34 0.33 0.32 0.33 0.35 0.33 0.32 0.30 0.30 0.29 0.25 0.23 0.22 0.21 0.26 0.29 0.32 0.34 0.38 0.40
0.15 0.18 0.17 0.16 0.24 0.25 0.26 0.28 0.27 0.33 0.35 0.35 0.34 0.28 0.33 0.44 0.41 0.44 0.45 0.44 0.47 0.51 0.44 0.36 0.32 0.31 0.31 0.30 0.29 0.29 0.27 0.26 0.25 0.24 0.23 0.20 0.19 0.21 0.22 0.23 0.22 0.23 0.25 0.27
0.21 0.24 0.20 0.17 0.23 0.24 0.23 0.27 0.31 0.31 0.31 0.24 0.28 0.26 0.26 0.32 0.33 0.40 0.42 0.43 0.49 0.48 0.41 0.35 0.36 0.34 0.32 0.31 0.27 0.25 0.23 0.23 0.24 0.23 0.23 0.20 0.18 0.18 0.17 0.18 0.18 0.20 0.21 0.22
0.20 0.19 0.23 0.23 0.23 0.24 0.24 0.24 0.25 0.25 0.24 0.19 0.28 0.28 0.24 0.35 0.39 0.36 0.37 0.43 0.51 0.49 0.43 0.33 0.31 0.30 0.29 0.27 0.26 0.25 0.23 0.21 0.24 0.24 0.23 0.22 0.20 0.20 0.18 0.19 0.18 0.18 0.19 0.20
0.16 0.14 0.20 0.23 0.23 0.22 0.23 0.22 0.19 0.18 0.20 0.21 0.30 0.21 0.25 0.37 0.42 0.45 0.44 0.46 0.49 0.48 0.46 0.39 0.30 0.29 0.28 0.27 0.27 0.26 0.23 0.21 0.23 0.23 0.24 0.24 0.23 0.20 0.20 0.20 0.19 0.19 0.20 0.21
0.16 0.16 0.21 0.23 0.26 0.28 0.25 0.19 0.25 0.21 0.24 0.21 0.23 0.30 0.36 0.38 0.40 0.42 0.42 0.43 0.42 0.44 0.43 0.39 0.32 0.30 0.29 0.28 0.28 0.26 0.23 0.22 0.23 0.24 0.24 0.23 0.23 0.20 0.18 0.18 0.20 0.20 0.22 0.22
0.23 0.15 0.19 0.23 0.26 0.27 0.28 0.28 0.22 0.25 0.18 0.17 0.19 0.21 0.23 0.31 0.34 0.38 0.36 0.37 0.42 0.44 0.42 0.38 0.32 0.30 0.31 0.30 0.30 0.28 0.24 0.21 0.21 0.22 0.25 0.24 0.23 0.20 0.19 0.20 0.20 0.21 0.23 0.23
0.23 0.21 0.18 0.21 0.21 0.20 0.24 0.26 0.26 0.27 0.22 0.16 0.14 0.16 0.31 0.32 0.32 0.29 0.33 0.38 0.41 0.42 0.42 0.41 0.32 0.32 0.32 0.32 0.31 0.29 0.25 0.22 0.21 0.22 0.24 0.22 0.21 0.19 0.19 0.20 0.21 0.22 0.22 0.23
0.24 0.22 0.17 0.17 0.22 0.26 0.27 0.26 0.27 0.19 0.19 0.23 0.18 0.14 0.31 0.30 0.30 0.32 0.32 0.38 0.42 0.42 0.42 0.40 0.32 0.31 0.31 0.31 0.31 0.29 0.26 0.22 0.22 0.23 0.22 0.22 0.21 0.19 0.20 0.20 0.21 0.22 0.21 0.23
0.26 0.21 0.17 0.17 0.19 0.22 0.21 0.23 0.27 0.26 0.24 0.18 0.16 0.18 0.32 0.33 0.32 0.34 0.33 0.38 0.41 0.41 0.41 0.39 0.36 0.30 0.31 0.32 0.31 0.29 0.25 0.22 0.22 0.22 0.22 0.21 0.19 0.19 0.19 0.21 0.21 0.21 0.22 0.23
0.29 0.23 0.22 0.16 0.16 0.19 0.18 0.20 0.25 0.25 0.19 0.20 0.22 0.23 0.27 0.28 0.29 0.32 0.36 0.40 0.40 0.40 0.41 0.38 0.38 0.31 0.31 0.32 0.31 0.30 0.26 0.24 0.22 0.22 0.22 0.21 0.19 0.20 0.21 0.21 0.21 0.22 0.23 0.23
0.28 0.21 0.24 0.26 0.25 0.24 0.22 0.18 0.21 0.24 0.24 0.19 0.19 0.21 0.25 0.27 0.29 0.31 0.37 0.41 0.40 0.39 0.39 0.38 0.35 0.32 0.31 0.32 0.32 0.30 0.26 0.24 0.23 0.22 0.22 0.20 0.20 0.21 0.21 0.20 0.21 0.22 0.23 0.24
0.31 0.22 0.24 0.22 0.26 0.26 0.22 0.23 0.20 0.18 0.19 0.19 0.20 0.19 0.29 0.34 0.37 0.37 0.36 0.36 0.37 0.37 0.37 0.36 0.36 0.32 0.31 0.32 0.32 0.30 0.26 0.24 0.24 0.23 0.22 0.21 0.20 0.21 0.20 0.20 0.21 0.22 0.23 0.24
0.29 0.26 0.23 0.19 0.23 0.23 0.20 0.19 0.20 0.19 0.21 0.20 0.15 0.19 0.25 0.27 0.28 0.30 0.31 0.33 0.34 0.36 0.35 0.35 0.33 0.32 0.33 0.33 0.33 0.29 0.26 0.25 0.23 0.23 0.22 0.20 0.21 0.20 0.20 0.21 0.21 0.21 0.22 0.24
0.26 0.26 0.26 0.21 0.22 0.17 0.17 0.23 0.20 0.19 0.17 0.19 0.22 0.22 0.23 0.25 0.27 0.31 0.35 0.34 0.34 0.35 0.36 0.35 0.34 0.33 0.34 0.34 0.33 0.31 0.26 0.24 0.23 0.23 0.21 0.21 0.21 0.19 0.21 0.21 0.21 0.22 0.23 0.23
0.33 0.27 0.23 0.21 0.19 0.19 0.21 0.20 0.17 0.17 0.15 0.19 0.18 0.24 0.26 0.28 0.31 0.30 0.36 0.36 0.35 0.35 0.37 0.35 0.35 0.35 0.35 0.35 0.33 0.30 0.24 0.23 0.23 0.22 0.20 0.21 0.20 0.19 0.20 0.20 0.21 0.23 0.23 0.23
0.32 0.31 0.25 0.23 0.18 0.13 0.15 0.23 0.24 0.23 0.12 0.17 0.18 0.21 0.23 0.25 0.20 0.24 0.33 0.37 0.38 0.39 0.36 0.34 0.35 0.36 0.36 0.35 0.33 0.27 0.22 0.22 0.22 0.21 0.21 0.22 0.20 0.20 0.20 0.22 0.22 0.23 0.24 0.23
0.25 0.26 0.22 0.20 0.19 0.17 0.22 0.23 0.22 0.13 0.08 0.16 0.21 0.23 0.24 0.20 0.21 0.28 0.36 0.37 0.39 0.36 0.35 0.37 0.37 0.36 0.36 0.35 0.32 0.24 0.22 0.21 0.23 0.23 0.23 0.22 0.21 0.21 0.22 0.22 0.23 0.22 0.21 0.21
0.23 0.21 0.21 0.23 0.18 0.12 0.23 0.21 0.13 0.13 0.14 0.17 0.19 0.23 0.23 0.27 0.29 0.31 0.34 0.36 0.35 0.33 0.35 0.37 0.36 0.35 0.36 0.35 0.30 0.22 0.21 0.24 0.23 0.23 0.23 0.22 0.22 0.22 0.22 0.22 0.22 0.22 0.20 0.19
0.27 0.25 0.20 0.21 0.17 0.22 0.23 0.17 0.17 0.15 0.14 0.16 0.18 0.23 0.24 0.26 0.28 0.31 0.32 0.33 0.33 0.33 0.34 0.36 0.36 0.35 0.35 0.33 0.26 0.21 0.23 0.24 0.23 0.22 0.22 0.22 0.22 0.21 0.21 0.20 0.20 0.20 0.20 0.19
0.33 0.35 0.25 0.25 0.25 0.23 0.22 0.21 0.21 0.20 0.18 0.20 0.21 0.23 0.26 0.25 0.29 0.30 0.30 0.31 0.32 0.33 0.34 0.35 0.34 0.32 0.32 0.29 0.25 0.24 0.24 0.24 0.22 0.21 0.22 0.22 0.21 0.21 0.22 0.21 0.21 0.20 0.19 0.19
0.39 0.37 0.28 0.25 0.26 0.25 0.22 0.21 0.22 0.22 0.24 0.22 0.23 0.23 0.27 0.28 0.29 0.29 0.29 0.30 0.31 0.32 0.33 0.33 0.31 0.30 0.28 0.26 0.25 0.25 0.25 0.23 0.21 0.22 0.22 0.21 0.21 0.21 0.21 0.21 0.21 0.21 0.22 0.22
0.37 0.36 0.28 0.20 0.25 0.24 0.22 0.23 0.23 0.24 0.25 0.25 0.24 0.24 0.28 0.28 0.28 0.29 0.29 0.31 0.30 0.31 0.32 0.30 0.30 0.28 0.25 0.25 0.25 0.26 0.25 0.23 0.22 0.20 0.21 0.21 0.21 0.21 0.21 0.20 0.19 0.23 0.23 0.23
Wind_Speed
28 27 32 33 27 28 27 25 24 23 24 21 22 22 22 21 19 18 17 15 13 12 13 12 12 11 10 10 10 9 9 11 10 12 14 16 16 18 19 20 21 21 22 24
26 33 29 27 26 25 24 25 24 20 23 21 23 21 22 23 22 20 19 17 15 15 14 13 11 9 9 9 9 9 9 10 11 12 14 15 17 19 20 21 22 24 25 26
29 27 30 28 29 26 25 31 29 27 23 22 23 21 24 24 23 22 20 18 16 15 15 13 11 10 9 8 9 9 10 10 11 12 14 16 17 18 19 20 22 23 25 26
29 31 27 29 32 32 29 28 28 29 26 26 25 23 26 26 25 24 22 19 16 15 14 12 11 10 9 8 8 8 9 9 10 11 12 13 14 15 17 19 20 21 23 25
27 26 28 31 36 31 32 27 30 30 26 24 26 21 25 27 27 25 22 19 17 15 14 13 11 10 8 8 8 8 8 9 10 10 11 12 13 15 17 18 20 21 23 24
27 24 27 28 27 31 26 23 22 22 21 24 30 25 25 30 28 25 23 21 19 16 14 12 11 10 9 8 7 7 8 8 9 9 10 11 13 15 16 18 20 21 23 24
23 25 25 25 25 26 29 27 20 20 23 24 27 25 25 29 27 27 25 22 20 17 14 13 12 10 9 8 8 7 7 8 8 9 10 12 13 15 16 18 20 22 23 25
23 23 25 25 26 27 34 32 28 23 26 22 21 25 23 28 28 26 25 23 20 18 15 13 12 11 10 9 8 8 8 8 9 10 11 12 13 15 17 19 21 22 24 25
21 23 22 24 24 26 28 28 28 20 18 18 21 19 18 24 25 26 25 23 22 20 17 14 13 12 10 9 9 8 8 8 9 10 11 12 15 17 18 20 21 23 25 26
18 19 22 22 23 23 29 28 25 21 21 21 23 23 22 26 26 25 24 25 23 21 18 15 14 13 11 10 9 8 8 9 9 10 12 14 16 18 19 21 23 24 26 27
23 19 18 22 26 26 25 28 24 24 19 20 18 25 24 28 28 27 26 25 24 21 20 17 15 13 12 11 10 9 9 10 10 12 13 15 17 19 20 22 23 25 27 28
27 19 21 22 23 26 27 29 27 27 25 20 20 22 22 28 30 28 27 25 23 22 20 17 16 14 13 12 11 10 11 11 12 13 14 16 18 19 20 22 24 26 27 28
26 25 19 17 20 24 28 29 29 26 22 26 21 21 20 23 24 27 27 25 24 22 19 18 16 15 14 13 12 12 12 12 13 14 15 17 18 19 21 22 25 26 27 28
22 26 27 26 22 23 26 29 28 28 26 24 25 22 23 24 25 26 27 26 25 24 21 19 17 16 15 14 13 13 13 13 14 15 16 17 19 20 21 23 24 26 27 29
25 27 27 26 25 23 23 29 31 33 31 29 26 26 28 27 27 28 26 27 26 24 22 20 18 17 16 15 14 14 14 14 15 15 16 17 19 20 21 23 24 25 27 29
25 25 25 27 26 27 26 26 29 35 31 30 28 27 29 28 25 27 28 28 27 25 24 21 19 18 17 15 15 14 14 14 15 15 16 18 19 20 21 22 24 26 28 29
26 26 24 28 27 24 25 35 33 30 32 32 32 29 27 29 30 30 29 29 28 26 24 22 21 19 17 16 15 14 14 14 15 16 17 18 18 19 21 22 24 26 28 30
29 27 25 25 23 24 34 30 36 37 34 34 30 31 33 32 31 30 31 30 28 26 24 22 20 18 17 15 14 13 14 14 15 15 16 17 18 19 21 23 24 26 28 30
33 27 25 25 28 27 29 28 29 32 37 34 33 33 33 31 27 29 33 31 28 26 24 22 20 18 16 15 13 13 14 14 14 15 16 17 18 19 21 23 25 27 29 31
31 30 29 23 26 30 29 31 28 26 34 36 36 35 34 32 32 31 30 30 28 26 24 21 19 18 16 14 13 13 13 14 14 15 15 17 18 19 21 23 25 27 29 31
32 30 33 28 28 30 28 24 27 27 28 31 35 37 37 36 30 25 30 29 28 26 24 21 20 18 16 14 13 13 13 13 14 14 15 16 18 19 21 23 25 27 29 31
36 33 32 29 28 32 28 26 33 31 24 23 31 36 36 33 28 30 31 29 28 26 24 22 20 17 16 14 13 13 13 13 14 14 15 17 18 20 22 24 26 28 30 32
37 37 36 36 35 25 26 29 29 28 24 25 26 32 34 32 31 32 31 30 28 26 24 22 19 17 16 15 14 13 13 13 13 14 15 17 18 20 22 24 26 28 30 32
38 38 35 32 36 36 30 25 26 26 26 25 28 28 34 33 33 31 30 30 28 26 24 22 19 17 16 15 14 13 13 13 13 14 15 17 18 20 22 24 26 28 30 32
34 38 39 37 34 30 35 30 23 26 26 25 27 29 34 34 33 32 31 30 28 26 24 22 20 18 16 15 14 13 13 13 13 14 15 17 19 20 22 24 26 28 30 32
41 40 41 42 39 34 30 31 31 27 26 26 27 29 34 36 34 33 31 30 28 26 24 22 20 18 17 16 14 14 14 14 14 14 15 17 19 20 22 24 26 28 30 32
Wind_Direction
219 218 218 218 215 220 210 212 212 218 215 218 218 211 215 217 220 221 224 226 234 245 256 262 270 275 278 279 281 282 282 279 272 265 269 276 282 291 291 291 293 293 291 290
221 223 221 217 217 213 213 208 210 213 216 215 211 217 222 220 224 222 223 230 238 247 252 258 263 264 270 277 284 287 287 284 281 281 282 280 281 288 291 294 295 294 293 292
218 221 217 217 216 214 215 208 212 210 213 213 206 225 222 227 230 230 232 234 240 242 241 245 249 255 262 272 280 286 289 292 292 289 286 286 288 292 295 297 296 298 297 296
225 223 220 217 216 215 217 212 208 204 207 216 222 230 230 225 228 231 232 233 232 233 231 232 238 248 255 265 275 284 291 295 300 300 301 303 302 302 303 303 302 303 303 303
222 219 218 217 216 215 221 208 208 211 214 209 223 226 234 222 228 226 225 222 219 225 226 227 231 240 249 261 274 284 290 296 300 303 306 307 308 307 308 308 308 307 308 307
224 222 216 218 218 216 212 203 203 208 215 224 219 223 233 221 220 216 218 213 214 217 222 223 228 235 244 256 270 282 290 296 302 308 313 317 318 316 315 316 315 314 312 312
219 218 218 214 212 212 203 191 202 210 216 221 210 224 231 219 217 212 208 209 211 211 214 219 228 236 241 247 261 278 288 293 299 307 313 318 321 322 322 321 320 319 317 316
213 219 212 213 215 212 201 203 207 209 216 216 208 226 228 221 215 211 209 207 210 213 219 223 227 232 236 242 255 271 283 289 296 305 312 317 321 323 323 322 321 320 319 317
214 221 218 215 214 207 209 212 208 212 227 215 221 233 235 214 207 206 207 209 212 215 220 223 229 231 235 242 252 266 280 288 294 301 308 316 320 323 323 323 323 322 321 319
222 220 219 216 212 214 212 206 207 218 211 219 229 230 227 207 205 206 207 210 213 217 219 222 227 229 236 241 251 266 281 289 293 302 307 314 319 322 323 324 325 324 323 321
218 217 221 211 214 212 211 210 212 212 216 219 225 235 222 212 208 208 209 210 212 216 218 222 225 229 232 238 249 263 279 286 292 299 305 312 317 320 322 324 325 325 324 323
217 218 220 217 220 219 216 215 214 215 220 226 228 238 219 214 215 211 211 211 212 215 218 220 220 225 233 240 250 265 279 285 290 296 303 310 315 318 320 323 325 326 326 326
217 220 218 220 223 220 219 217 218 219 223 226 226 236 228 219 213 212 209 210 211 213 215 217 220 227 234 243 252 267 279 285 288 294 301 307 313 316 319 321 324 326 327 327
220 220 219 219 221 215 221 220 218 218 222 224 231 229 218 216 213 212 211 212 213 215 216 219 225 230 236 243 255 268 278 282 287 293 300 307 311 314 317 320 323 326 327 327
222 224 223 225 223 223 223 222 222 224 227 226 228 227 221 218 216 215 213 211 214 216 218 221 226 231 238 247 258 267 276 279 285 292 299 305 309 312 316 320 323 325 327 328
226 228 225 227 226 225 227 225 223 225 226 230 227 233 224 222 216 214 214 213 214 216 219 221 226 230 239 246 256 266 274 278 285 292 299 303 308 311 316 319 323 325 327 328
226 223 224 229 226 228 237 225 224 227 226 224 225 229 221 221 220 217 215 213 214 216 217 220 225 232 238 245 254 266 272 278 285 292 298 303 307 311 316 319 323 325 327 328
227 224 227 229 226 230 236 227 227 227 229 228 230 225 221 220 223 219 215 212 213 214 216 220 226 231 235 243 255 265 271 278 285 292 298 302 307 312 316 320 323 326 327 328
225 223 227 224 228 237 234 227 221 223 232 227 225 222 219 218 218 220 214 213 212 214 217 220 223 225 231 241 253 263 270 277 285 292 296 301 307 312 316 320 323 326 328 330
223 225 223 226 225 230 232 227 227 228 237 225 222 218 212 209 215 218 212 210 211 213 214 215 218 222 230 241 252 264 270 278 285 290 295 301 306 311 316 319 323 325 328 330
220 223 221 226 231 238 230 224 213 217 234 222 216 213 210 213 220 210 204 207 208 209 209 212 215 223 231 241 253 264 270 279 285 290 296 302 307 311 315 318 321 325 328 329
219 217 222 224 229 238 224 218 215 227 228 221 215 212 211 212 208 203 203 203 204 205 206 210 216 224 232 242 254 262 271 279 286 291 297 303 308 311 315 318 321 324 327 329
222 221 221 221 228 231 226 227 229 228 225 222 215 209 206 205 205 201 201 201 203 202 206 210 216 224 234 244 253 261 269 278 285 290 297 304 309 313 315 318 321 324 326 329
227 223 225 225 228 229 230 233 228 224 223 221 214 209 204 202 199 199 199 200 202 204 206 211 217 226 235 244 252 261 266 276 284 290 297 304 310 314 318 319 322 324 327 329
229 224 224 230 231 231 229 224 222 222 219 216 212 209 202 198 199 199 200 201 203 204 209 214 220 228 235 241 250 258 266 274 283 290 298 304 310 314 318 321 323 325 327 329
231 228 221 225 223 225 228 227 223 219 217 213 209 206 204 199 199 201 201 202 203 205 211 217 223 228 233 239 247 256 266 272 280 290 297 304 310 315 318 321 324 326 328 331